Location: Krasnoyarskiy Pitomnik
(51.1333°N, 71.6167°E)
Time: 12:08:51
(UTC+00:00)

Transit 2A - Pass Details

Date: 15 April 2024
Orbit: 593 x 958 km, 66.7° (Epoch: 30 May)

Event Time Altitude Azimuth Distance (km) Brightness Sun altitude
Rises 13:05:37 0° 308° (NW) 3,274 10.3 9.0°
Reaches altitude 10° 13:09:08 10° 284° (WNW) 2,422 11.2 8.5°
Maximum altitude 13:11:53 14° 255° (WSW) 2,205 10.0 8.1°
Drops below altitude 10° 13:14:44 10° 225° (SW) 2,529 9.3 7.6°
Sets 13:18:35 0° 202° (SSW) 3,529 9.6 7.0°
